Home > Time Zones > World Clock > Weather > Japan > Tokyo > Past weeks

Flag for Japan Weather past 2 weeks in Tokyo, Japan

Now
85 °F

Warm.


Feels Like: 91 °F
Forecast: 78 / 86 °F
Wind: 8 mph from North

Location: Tokyo

Current Time: Aug 22, 2014 at 10:58:39 PM

Latest Report: Aug 22, 2014 at 10:00 PM


Visibility: N/A

Pressure: 29.86 "Hg

Humidity: 65%

Dew point: 72 °F

Location of TokyoLocation

Historic Weather in Tokyo — Graph

°F

Tokyo temperature yesterday

Maximum temperature yesterday: 92 °F (at 1:00 PM)
Minimum temperature yesterday: 82 °F (at 6:00 AM)
Average temperature yesterday: 87 °F

Past Weeks' High & Low Weather Summary

 TemperatureHumidityPressure
High93 °F (Aug 20, 2:00 PM)95% (Aug 10, 5:00 AM)30.00 "Hg (Aug 10, 5:00 AM)
Low72 °F (Aug 12, 11:00 PM)53% (Aug 19, 10:00 AM)29.41 "Hg (Aug 10, 7:00 PM)
Average83 °F75%29.80 "Hg
* Reported Aug 7 9:00 PM — Aug 22 9:00 PM, Tokyo, Weather by CustomWeather, © 2014

Note: Actual official high and low records may vary slightly from our data, if they occured in-between our weather recording intervals... More about our weather records

Advertising

Tokyo weather history for previous 24 hours

 ConditionsComfort  
Time TempWeatherWind HumidityBarometerVisibility
9:00 PM
Aug 22
86 °FOvercast.10 mph66%29.84 "Hg12 mi
8:00 PM86 °FWarm.13 mph68%29.81 "HgN/A
7:00 PM87 °FWarm.10 mph66%29.81 "HgN/A
6:00 PM87 °FPassing clouds.9 mph69%29.78 "Hg12 mi
5:00 PM88 °FHot.7 mph67%29.80 "HgN/A
4:00 PM88 °FHot.12 mph65%29.79 "HgN/A
3:00 PM90 °FPassing clouds.14 mph62%29.80 "Hg12 mi
2:00 PM92 °FHot.14 mph58%29.82 "HgN/A
1:00 PM93 °FHot.9 mph57%29.84 "HgN/A
12:00 PM92 °FPassing clouds.10 mph57%29.86 "Hg12 mi
11:00 AM91 °FHot.10 mph60%29.88 "HgN/A
10:00 AM90 °FHot.6 mph67%29.88 "HgN/A
9:00 AM87 °FOvercast.3 mph73%29.88 "Hg9 mi
8:00 AM85 °FWarm.2 mph76%29.89 "HgN/A
7:00 AM83 °FWarm.3 mph81%29.89 "HgN/A
6:00 AM83 °FScattered clouds.3 mph83%29.89 "Hg12 mi
5:00 AM82 °FWarm.1 mph84%29.89 "HgN/A
4:00 AM83 °FWarm.3 mph81%29.89 "HgN/A
3:00 AM83 °FPassing clouds.3 mph81%29.89 "Hg12 mi
2:00 AM83 °FWarm.2 mph81%29.88 "HgN/A
1:00 AM84 °FWarm.6 mph78%29.88 "HgN/A
12:00 AM84 °FWarm.5 mph78%29.89 "HgN/A
11:00 PM
Aug 21
86 °FWarm.6 mph76%29.90 "HgN/A
10:00 PM86 °FWarm.5 mph75%29.89 "HgN/A
Weather by CustomWeather, © 2014

See weather overviewHow to use our weather pages